TimeMST,TemperatureF,Dew PointF,Humidity,Sea Level PressureIn,VisibilityMPH,Wind Direction,Wind SpeedMPH,Gust SpeedMPH,PrecipitationIn,Events,Conditions,WindDirDegrees,DateUTC
12:53 AM,32.0,8.1,37,29.64,10.0,Calm,Calm,-,N/A,,Clear,0,2012-11-09 07:53:00
1:53 AM,32.0,9.0,38,29.62,10.0,ESE,4.6,-,N/A,,Clear,110,2012-11-09 08:53:00
2:53 AM,32.0,10.0,40,29.60,10.0,ENE,4.6,-,N/A,,Clear,70,2012-11-09 09:53:00
3:53 AM,35.1,12.0,39,29.57,10.0,ESE,9.2,-,N/A,,Clear,120,2012-11-09 10:53:00
4:53 AM,30.0,12.9,49,29.66,10.0,Calm,Calm,-,N/A,,Mostly Cloudy,0,2012-11-09 11:53:00
5:53 AM,33.1,15.1,48,29.66,10.0,SSE,6.9,-,N/A,,Clear,160,2012-11-09 12:53:00
6:53 AM,30.0,14.0,51,29.67,10.0,ENE,3.5,-,N/A,,Mostly Cloudy,70,2012-11-09 13:53:00
7:53 AM,37.0,19.9,50,29.68,10.0,South,15.0,19.6,N/A,,Partly Cloudy,170,2012-11-09 14:53:00
8:53 AM,39.9,17.1,40,29.66,10.0,South,19.6,36.8,N/A,,Partly Cloudy,170,2012-11-09 15:53:00
9:53 AM,41.0,18.0,40,29.68,10.0,SSW,18.4,38.0,N/A,,Clear,210,2012-11-09 16:53:00
10:53 AM,42.1,18.0,38,29.61,10.0,Variable,5.8,17.3,N/A,,Scattered Clouds,0,2012-11-09 17:53:00
11:53 AM,41.0,17.1,38,29.62,10.0,SSE,8.1,-,N/A,,Overcast,150,2012-11-09 18:53:00
12:53 PM,42.1,17.1,37,29.56,10.0,Variable,6.9,-,N/A,,Overcast,0,2012-11-09 19:53:00
1:53 PM,45.0,14.0,29,29.50,10.0,South,10.4,16.1,N/A,,Overcast,190,2012-11-09 20:53:00
2:53 PM,46.0,15.1,29,29.47,10.0,South,13.8,23.0,N/A,,Mostly Cloudy,180,2012-11-09 21:53:00
3:40 PM,44.6,17.6,34,29.80,10.0,South,17.3,24.2,N/A,,Mostly Cloudy,170,2012-11-09 22:40:00
3:53 PM,44.1,18.0,35,29.45,10.0,SSE,17.3,23.0,N/A,,Partly Cloudy,160,2012-11-09 22:53:00
4:53 PM,39.0,21.0,49,29.53,10.0,South,15.0,23.0,N/A,,Scattered Clouds,180,2012-11-09 23:53:00
5:53 PM,36.0,24.1,62,29.53,10.0,SSE,12.7,-,N/A,,Scattered Clouds,160,2012-11-10 00:53:00
6:53 PM,35.1,24.1,64,29.55,10.0,SSE,11.5,-,0.00,,Clear,160,2012-11-10 01:53:00
7:53 PM,34.0,26.1,73,29.52,10.0,South,13.8,-,0.00,,Overcast,170,2012-11-10 02:53:00
8:53 PM,30.9,26.1,82,29.50,10.0,Calm,Calm,-,0.00,,Mostly Cloudy,0,2012-11-10 03:53:00
9:53 PM,33.1,26.1,75,29.47,9.0,SSE,12.7,23.0,0.00,Snow,Light Snow,160,2012-11-10 04:53:00
10:53 PM,32.0,25.0,75,29.44,8.0,SSE,10.4,19.6,0.00,Snow,Light Snow,150,2012-11-10 05:53:00
11:53 PM,30.9,25.0,79,29.44,7.0,SSE,9.2,-,0.01,Snow,Light Snow,160,2012-11-10 06:53:00